CST,Max TemperatureF,Mean TemperatureF,Min TemperatureF,Max Dew PointF,MeanDew PointF,Min DewpointF,Max Humidity, Mean Humidity, Min Humidity, Max Sea Level PressureIn, Mean Sea Level PressureIn, Min Sea Level PressureIn, Max VisibilityMiles, Mean VisibilityMiles, Min VisibilityMiles, Max Wind SpeedMPH, Mean Wind SpeedMPH, Max Gust SpeedMPH,PrecipitationIn, CloudCover, Events, WindDirDegrees
2012-2-1,32,28,24,27,25,23,100,90,80,29.99,29.95,29.87,10,7,1,7,3,,0.00,8,Snow,226
2012-2-2,32,30,28,28,27,27,93,89,80,30.35,30.18,30.01,10,8,1,6,2,,0.00,8,,293
2012-2-3,33,25,17,27,24,16,100,89,75,30.48,30.42,30.36,10,8,2,6,1,,0.00,5,Snow,284
2012-2-4,33,24,15,27,19,12,93,85,60,30.38,30.31,30.25,10,8,0,9,2,,0.00,5,Fog,307
2012-2-5,37,29,21,23,21,19,93,81,52,30.28,30.17,29.98,10,7,2,9,5,,0.00,5,,230
2012-2-6,28,22,15,23,19,9,93,81,68,30.32,30.06,29.92,10,9,5,8,3,,0.00,5,,321
2012-2-7,19,5,-9,1,-9,-15,85,56,21,30.55,30.48,30.40,10,10,10,7,1,,0.00,0,,288
2012-2-8,33,16,0,9,-2,-11,78,54,20,30.36,30.19,30.03,10,10,10,12,5,18,0.00,0,,259
2012-2-9,28,20,12,16,10,5,80,66,51,29.99,29.85,29.77,10,9,2,12,6,18,0.00,3,Snow,260
2012-2-10,8,-3,-14,-9,-16,-20,77,54,26,30.38,30.29,30.08,10,10,10,13,5,18,0.00,1,,318
2012-2-11,12,0,-13,-4,-13,-18,77,59,38,30.43,30.38,30.33,10,10,10,16,11,22,0.00,3,,290
2012-2-12,28,12,-5,-4,-8,-9,84,51,21,30.30,30.17,30.00,10,10,10,12,5,,0.00,0,,262
2012-2-13,26,16,6,10,2,-8,62,53,46,29.92,29.76,29.65,10,10,10,7,2,,0.00,4,,169
2012-2-14,37,29,21,18,15,10,74,60,41,29.66,29.63,29.61,10,10,10,12,2,,0.00,5,,177
2012-2-15,39,28,17,30,22,16,93,82,56,29.86,29.81,29.73,10,7,1,9,4,,0.00,6,Rain-Snow,169
2012-2-16,30,27,24,27,22,18,93,81,64,29.94,29.90,29.85,10,9,3,14,5,17,0.00,8,Snow,272
2012-2-17,26,22,17,19,15,10,93,75,51,30.05,29.97,29.91,10,10,7,7,1,,0.00,8,,314
2012-2-18,28,12,-4,14,6,-9,92,73,55,30.13,30.10,30.07,10,10,10,8,1,,0.00,4,Snow,220
2012-2-19,41,26,10,18,14,9,92,65,31,30.06,29.99,29.93,10,10,10,14,3,18,0.00,0,,154
2012-2-20,37,32,26,27,20,18,80,61,45,29.95,29.87,29.69,10,10,3,18,9,25,0.00,4,Snow,158
2012-2-21,32,28,24,28,26,19,93,89,80,29.59,29.35,29.24,10,4,1,13,7,20,0.04,8,Snow,195
2012-2-22,24,20,17,19,17,12,93,83,74,29.38,29.34,29.31,10,10,7,14,8,17,0.00,8,Snow,296
2012-2-23,24,20,17,18,15,12,93,79,59,29.64,29.51,29.40,10,9,5,6,1,,0.00,8,Snow,299
2012-2-24,21,16,12,18,11,7,93,77,63,29.86,29.71,29.63,10,8,2,14,5,17,0.00,8,Snow,292
2012-2-25,21,14,8,10,7,3,92,75,54,30.11,30.05,29.94,10,9,2,12,6,,0.00,5,Snow,301
2012-2-26,26,20,14,21,16,10,93,83,74,30.07,29.84,29.71,10,4,0,10,6,18,0.03,8,Snow,80
2012-2-27,24,14,5,16,9,1,92,76,59,30.30,30.20,29.93,10,9,3,8,5,,0.00,7,Snow,305
2012-2-28,33,24,15,23,18,10,93,75,51,30.26,30.12,29.97,10,9,2,10,4,,0.00,8,Snow,137
2012-2-29,32,29,26,25,22,21,86,77,69,29.85,29.65,29.57,10,10,7,10,6,21,0.00,8,Snow,72